STARLINK-5925, 55945

Orbit data source: Space-Track

STARLINK-5925, 55945 is a payload satellite owned by SpaceX/Seattle (US) in LEO that was launched on Fri, 17 Mar 2023 UTC via an FALCON 9 launch vehicle from the Air Force Western Test Range (AFWTR). Payload-class satellites include a variety of spacecraft equipped with specific instruments for various scientific and technological missions. These include communications satellites like Starlink; space stations such as the ISS; scientific satellites like the Hubble; Earth observation satellites from companies like Planet Labs, Umbra, and HawkEye 360; GPS; miniature CubeSats for education and research; and military/defense satellites.

Loading next visibility...
Identifier
55945, 2023-037AH
Orbit
LEO
Country
Flag of USUS
Related business
Manufacturer
SpaceX/Seattle
Mission
Operational Commercial Communications
Bus & Motor
STARLINK, Unknown motor
Mass
305 kg wet, ~290 kg dry
Launch date (UTC)
2023-03-17 (3 years ago)
Launch vehicle
FALCON 9
Launch site
Air Force Western Test Range (AFWTR)
Object type
Payload
Rocket body
Debris
Shape & HBR
Box + 1 Pan, 10.1 m
Radar Cross Section
11.087 m², Large (>1 m²)

Expand to show TLE details & history
Last TLE update: 19 hours ago

TLE from 19 hours ago
0 STARLINK-5925
1 55945U 23037AH  25350.11591876  .00000473  00000-0  47408-4 0  9997
2 55945  69.9992 135.0949 0003235 268.4230  91.6559 14.98332907151461
Epoch: 2025-12-16T02:46Z
TLE epoch observation values (Epoch: 2025-12-16T02:46:55.380Z)
Latitude
-0°
Longitude
8.35939°
Altitude
574.536 km
Speed
7.574 km/s
True Right ascension
09h 00m 22s
True Declination
0° 00' 00"
Sunlit
Object was in full shadow at epoch
Visualization orbit readout
Latitude
Unknown
Longitude
Unknown
Altitude
Unknown
Speed
Unknown
Apparent Right ascension
Unknown
Apparent Declination
Unknown
Sunlit
N/A
Visualization observer readout
Local Sidereal Time
20:43:33
Azimuth
Unknown
Elevation
Unknown
Doppler factor
Unknown
Orbital elements
Apogee altitude
572.243 km
Perigee altitude
567.748 km
Semi-major axis
6,948.132 km
Eccentricity
0.00032
Inclination
69.9992°
RAAN
135.0949°
Arg. of periapsis
268.423°
True anomaly
91.69295°
Mean anomaly
91.6559°
Eccentric anomaly
91.67443°
Mean motion
3.74749 °/min
Orbital period
96.06 mins
BSTAR
0.000047408
Loading maneuver chart data...
Computing Atmospheric mass density...
Loading historical data...
Loading historical data...
Loading historical data...
Loading historical data...
Loading historical data...
Loading historical data...
Loading historical data...

Documentation

Showing up to 5 results
|